User: anonymous   Login
Location: Wald
(31.7579°N, 86.6655°W)
Time: 13:40:09
(UTC+00:00)
Language:

SJ-6B - Orbit

View from above orbital plane
View from above orbital plane
View from above satellite
View from above satellite

Ground track
Ground track

The orbit data is extracted from the following two-line orbital elements,

1 28415U 04035C   20274.75198853  .00000163  00000-0  14984-4 0  9993
2 28415  97.6036 315.1173 0051355 355.2359   4.8372 15.06913161879499
Epoch (UTC): 30 September 2020 18:02:51
Eccentricity: 0.0051355
inclination: 97.6036°
perigee height: 510 km
apogee height: 581 km
right ascension of ascending node: 315.1173°
argument of perigee: 355.2359°
revolutions per day: 15.06913161
mean anomaly at epoch: 4.8372°
orbit number at epoch: 87949

The dashed part of the orbit path shows where the satellite is in the earth's shadow,  

DLR